When you browse on this site, cookies collect data to enhance your experience and personalize the content and advertising you see.
Visit our Privacy Policy to learn more. By continuing to use the site, you agree to this use of cookies and data.

Hourly Weather Baranovichi

Today, 5 July, Sunday

Time Temperature Precipitation Wind Pressure Humidity
00:00 +16°C° 0 mm 1 mps 745 mmHg 83%
01:00 +16°C° 0 mm 1 mps 745 mmHg 85%
02:00 +16°C° 0 mm 2 mps 745 mmHg 88%
03:00 +16°C° 0 mm 2 mps 744 mmHg 89%
04:00 +15°C° 0 mm 2 mps 744 mmHg 90%
05:00 +15°C° 0 mm 2 mps 744 mmHg 91%
06:00 +17°C° 0 mm 2 mps 744 mmHg 86%
07:00 +19°C° 0 mm 3 mps 744 mmHg 81%
08:00 +21°C° 0 mm 3 mps 744 mmHg 77%
09:00 +22°C° 0 mm 3 mps 744 mmHg 73%
10:00 +23°C° 0 mm 4 mps 744 mmHg 69%
11:00 +25°C° 0 mm 4 mps 744 mmHg 66%
12:00 +25°C° 0.1 mm 4 mps 744 mmHg 67%
13:00 +25°C° 0.1 mm 4 mps 744 mmHg 67%
14:00 +26°C° 0 mm 3 mps 743 mmHg 69%
15:00 +26°C° 0.1 mm 4 mps 743 mmHg 69%
16:00 +26°C° 0.1 mm 4 mps 743 mmHg 69%
17:00 +26°C° 0.1 mm 4 mps 742 mmHg 69%
18:00 +25°C° 0.1 mm 3 mps 742 mmHg 74%
19:00 +24°C° 0.1 mm 3 mps 742 mmHg 80%
20:00 +22°C° 0.1 mm 3 mps 742 mmHg 85%
21:00 +21°C° 0 mm 3 mps 742 mmHg 88%
22:00 +20°C° 0 mm 3 mps 742 mmHg 91%
23:00 +19°C° 0 mm 3 mps 742 mmHg 94%

Tomorrow, 6 July, Monday

Time Temperature Precipitation Wind Pressure Humidity
00:00 +19°C° 0 mm 3 mps 742 mmHg 94%
01:00 +19°C° 0 mm 3 mps 742 mmHg 94%
02:00 +19°C° 0 mm 3 mps 742 mmHg 95%
03:00 +18°C° 0 mm 3 mps 741 mmHg 95%
04:00 +18°C° 0 mm 3 mps 741 mmHg 95%
05:00 +18°C° 0 mm 3 mps 741 mmHg 95%
06:00 +19°C° 0 mm 3 mps 741 mmHg 91%
07:00 +21°C° 0 mm 3 mps 741 mmHg 88%
08:00 +22°C° 0 mm 3 mps 741 mmHg 84%
09:00 +24°C° 0 mm 3 mps 741 mmHg 82%
10:00 +23°C° 0 mm 4 mps 740 mmHg 80%
11:00 +25°C° 0 mm 4 mps 740 mmHg 78%
12:00 +25°C° 1 mm 4 mps 740 mmHg 79%
13:00 +26°C° 1 mm 4 mps 740 mmHg 80%
14:00 +26°C° 1 mm 4 mps 739 mmHg 81%
15:00 +26°C° 1.3 mm 4 mps 739 mmHg 83%
16:00 +25°C° 1.3 mm 3 mps 739 mmHg 84%
17:00 +25°C° 1.3 mm 3 mps 739 mmHg 86%
18:00 +24°C° 0.6 mm 3 mps 739 mmHg 87%
19:00 +21°C° 0.6 mm 3 mps 739 mmHg 89%
20:00 +20°C° 0.6 mm 2 mps 739 mmHg 90%
21:00 +19°C° 0.2 mm 2 mps 739 mmHg 91%
22:00 +18°C° 0.2 mm 3 mps 739 mmHg 91%
23:00 +17°C° 0.2 mm 3 mps 739 mmHg 92%

Day after tomorrow, 7 July, Tuesday

Time Temperature Precipitation Wind Pressure Humidity
00:00 +17°C° 0 mm 3 mps 740 mmHg 93%
01:00 +17°C° 0 mm 2 mps 740 mmHg 94%
02:00 +16°C° 0 mm 2 mps 740 mmHg 94%
03:00 +16°C° 0 mm 3 mps 741 mmHg 93%
04:00 +14°C° 0 mm 3 mps 741 mmHg 92%
05:00 +14°C° 0 mm 3 mps 741 mmHg 91%
06:00 +14°C° 0 mm 3 mps 741 mmHg 87%
07:00 +16°C° 0 mm 3 mps 742 mmHg 84%
08:00 +17°C° 0 mm 4 mps 742 mmHg 80%
09:00 +17°C° 0 mm 4 mps 742 mmHg 76%
10:00 +18°C° 0 mm 4 mps 742 mmHg 72%
11:00 +19°C° 0 mm 4 mps 743 mmHg 68%
12:00 +19°C° 0.1 mm 4 mps 743 mmHg 69%
13:00 +19°C° 0.1 mm 4 mps 743 mmHg 70%
14:00 +18°C° 0.1 mm 4 mps 743 mmHg 71%
15:00 +18°C° 0.2 mm 3 mps 743 mmHg 73%
16:00 +18°C° 0.2 mm 3 mps 743 mmHg 76%
17:00 +18°C° 0.2 mm 3 mps 743 mmHg 78%
18:00 +17°C° 0.1 mm 3 mps 743 mmHg 80%
19:00 +16°C° 0.1 mm 3 mps 743 mmHg 82%
20:00 +14°C° 0.1 mm 3 mps 743 mmHg 85%
21:00 +13°C° 0 mm 3 mps 743 mmHg 86%
22:00 +12°C° 0 mm 3 mps 744 mmHg 88%
23:00 +12°C° 0 mm 3 mps 744 mmHg 90%

8 July, Wednesday

Time Temperature Precipitation Wind Pressure Humidity
00:00 +11°C° 0 mm 3 mps 744 mmHg 91%
01:00 +10°C° 0 mm 3 mps 744 mmHg 92%
02:00 +9°C° 0 mm 3 mps 744 mmHg 93%
03:00 +9°C° 0 mm 3 mps 744 mmHg 93%
04:00 +9°C° 0 mm 3 mps 744 mmHg 94%
05:00 +8°C° 0 mm 3 mps 744 mmHg 95%
06:00 +10°C° 0 mm 3 mps 744 mmHg 90%
07:00 +12°C° 0 mm 3 mps 744 mmHg 85%
08:00 +14°C° 0 mm 4 mps 745 mmHg 81%
09:00 +15°C° 0 mm 4 mps 744 mmHg 75%
10:00 +17°C° 0 mm 4 mps 744 mmHg 70%
11:00 +18°C° 0 mm 4 mps 744 mmHg 64%
12:00 +19°C° 0 mm 4 mps 744 mmHg 63%
13:00 +19°C° 0 mm 4 mps 744 mmHg 61%
14:00 +20°C° 0 mm 4 mps 744 mmHg 60%
15:00 +19°C° 0.1 mm 4 mps 744 mmHg 64%
16:00 +19°C° 0.1 mm 4 mps 744 mmHg 68%
17:00 +18°C° 0.1 mm 4 mps 744 mmHg 73%
18:00 +17°C° 0.1 mm 4 mps 744 mmHg 78%
19:00 +16°C° 0.1 mm 3 mps 744 mmHg 83%
20:00 +13°C° 0.1 mm 3 mps 744 mmHg 88%
21:00 +12°C° 0 mm 3 mps 744 mmHg 91%
22:00 +12°C° 0 mm 2 mps 744 mmHg 94%
23:00 +10°C° 0 mm 2 mps 744 mmHg 96%

9 July, Thursday

Time Temperature Precipitation Wind Pressure Humidity
00:00 +10°C° 0 mm 2 mps 744 mmHg 96%
01:00 +10°C° 0 mm 2 mps 744 mmHg 97%
02:00 +9°C° 0 mm 2 mps 744 mmHg 97%
03:00 +9°C° 0 mm 2 mps 744 mmHg 97%
04:00 +9°C° 0 mm 2 mps 745 mmHg 98%
05:00 +9°C° 0 mm 2 mps 745 mmHg 98%
06:00 +11°C° 0 mm 3 mps 745 mmHg 93%
07:00 +12°C° 0 mm 3 mps 745 mmHg 88%
08:00 +14°C° 0 mm 3 mps 745 mmHg 83%
09:00 +15°C° 0 mm 4 mps 746 mmHg 77%
10:00 +17°C° 0 mm 4 mps 746 mmHg 70%
11:00 +17°C° 0 mm 5 mps 746 mmHg 64%
12:00 +19°C° 0 mm 5 mps 746 mmHg 63%
13:00 +19°C° 0 mm 5 mps 746 mmHg 63%
14:00 +19°C° 0 mm 5 mps 746 mmHg 62%
15:00 +19°C° 0.1 mm 5 mps 746 mmHg 64%
16:00 +19°C° 0.1 mm 5 mps 746 mmHg 65%
17:00 +19°C° 0.1 mm 5 mps 746 mmHg 67%
18:00 +18°C° 0.1 mm 4 mps 746 mmHg 72%
19:00 +17°C° 0.1 mm 3 mps 746 mmHg 78%
20:00 +16°C° 0.1 mm 2 mps 746 mmHg 83%
21:00 +15°C° 0 mm 2 mps 747 mmHg 85%
22:00 +14°C° 0 mm 2 mps 747 mmHg 88%
23:00 +13°C° 0 mm 2 mps 747 mmHg 90%

10 July, Friday

Time Temperature Precipitation Wind Pressure Humidity
00:00 +12°C° 0 mm 2 mps 747 mmHg 91%
01:00 +12°C° 0 mm 1 mps 747 mmHg 91%
02:00 +11°C° 0 mm 1 mps 748 mmHg 92%
03:00 +11°C° 0 mm 1 mps 748 mmHg 92%
04:00 +11°C° 0 mm 1 mps 748 mmHg 92%
05:00 +10°C° 0 mm 0 mps 748 mmHg 91%
06:00 +13°C° 0 mm 1 mps 748 mmHg 86%
07:00 +15°C° 0 mm 1 mps 748 mmHg 81%
08:00 +18°C° 0 mm 1 mps 748 mmHg 76%
09:00 +18°C° 0 mm 2 mps 748 mmHg 71%
10:00 +19°C° 0 mm 2 mps 748 mmHg 66%
11:00 +21°C° 0 mm 3 mps 748 mmHg 60%
12:00 +21°C° 0 mm 3 mps 748 mmHg 60%
13:00 +21°C° 0 mm 3 mps 747 mmHg 59%
14:00 +22°C° 0 mm 3 mps 747 mmHg 59%
15:00 +22°C° 0 mm 3 mps 747 mmHg 60%
16:00 +23°C° 0 mm 2 mps 747 mmHg 61%
17:00 +23°C° 0 mm 2 mps 746 mmHg 63%
18:00 +21°C° 0 mm 2 mps 746 mmHg 69%
19:00 +20°C° 0 mm 3 mps 746 mmHg 75%
20:00 +18°C° 0 mm 3 mps 746 mmHg 82%
21:00 +18°C° 0 mm 3 mps 746 mmHg 82%
22:00 +17°C° 0 mm 3 mps 746 mmHg 82%
23:00 +17°C° 0 mm 4 mps 746 mmHg 82%
Show more